Fort Knox, KY

9:45 PM EST on December 15, 2019 (GMT -0500)
Godman Army Air Field

Weather History for KFTK - October, 2019

Change the Weather History Date:

Wednesday, October 9, 2019

  Actual Average Record
Temperature  
Mean Temperature 56 °F -  
Max Temperature 64 °F 68 °F 86 °F (2010)
Min Temperature 47 °F 47 °F 26 °F (2000)
Degree Days  
Heating Degree Days 10    
Growing Degree Days 6 (Base 50)    
Moisture  
Dew Point 53 °F    
Average Humidity 92    
Maximum Humidity 100    
Minimum Humidity 69    
Precipitation  
Precipitation 0.00 in - - ()
Sea Level Pressure  
Sea Level Pressure 30.15 in    
Wind  
Wind Speed 4 mph (ENE)    
Max Wind Speed 10 mph    
Max Gust Speed -    
Visibility 8 miles    
Events Fog    
Averages and records for this station are not official NWS values.
T = Trace of Precipitation, MM = Missing Value Source: NWS Daily Summary

Daily Weather History Graph

Daily Weather History Graph

Search for Another Location

Airport or City:

Astronomy

Oct. 09, 2019 Rise Set
Actual Time 7:46 AM EDT 7:15 PM EDT
Civil Twilight 7:20 AM EDT 7:41 PM EDT
Nautical Twilight 6:49 AM EDT 8:11 PM EDT
Astronomical Twilight 6:19 AM EDT 8:42 PM EDT
Moon 5:41 PM EDT (10/9) 3:38 AM EDT (10/9)
Length of Visible Light 12h 21m
Length of Day
11h 28m
Waxing Gibbous, 85% of the Moon is Illuminated
Oct 9
Waxing Gibbous
Oct 13
Full
Oct 21
Last Quarter
Oct 27
New
Nov 4
First Quarter

Hourly Weather History & Observations

Time (EDT) Temp. Dew Point Humidity Pressure Visibility Wind Dir Wind Speed Gust Speed Precip Events Conditions
12:39 AM 50.0 °F 46.4 °F 87% 30.13 in 7.0 mi NE 3.5 mph - N/A   Clear
12:56 AM 53.4 °F 43.5 °F 69% 30.12 in 7.0 mi NE 3.5 mph - N/A   Clear
1:56 AM 52.7 °F 44.2 °F 73% 30.12 in 7.0 mi Calm Calm - N/A   Clear
2:56 AM 48.6 °F 44.6 °F 86% 30.13 in 6.0 mi NNE 4.6 mph - N/A   Clear
3:56 AM 48.7 °F 46.2 °F 91% 30.12 in 5.0 mi NNE 3.5 mph - N/A   Clear
4:56 AM 49.6 °F 45.7 °F 86% 30.12 in 10.0 mi Calm Calm - N/A   Clear
5:56 AM 48.4 °F 46.9 °F 95% 30.13 in 10.0 mi NNE 4.6 mph - N/A   Clear
6:48 AM 48.2 °F 46.4 °F 93% 30.15 in 10.0 mi NNE 3.5 mph - N/A   Clear
6:56 AM 47.8 °F 47.5 °F 99% 30.15 in 10.0 mi NNE 3.5 mph - N/A   Clear
7:41 AM 50.0 °F 50.0 °F 100% 30.16 in 10.0 mi NNE 5.8 mph - N/A   Mostly Cloudy
7:56 AM 51.6 °F 51.3 °F 99% 30.16 in 10.0 mi NNE 4.6 mph - N/A   Overcast
8:11 AM 51.8 °F 51.8 °F 100% 30.17 in 4.0 mi NNE 3.5 mph - N/A   Overcast
8:36 AM 51.8 °F 51.8 °F 100% 30.18 in 0.4 mi Calm Calm - N/A Fog Fog
8:56 AM 53.1 °F 53.1 °F 100% 30.18 in 0.4 mi NNE 3.5 mph - N/A Fog Fog
9:11 AM 53.6 °F 53.6 °F 100% 30.18 in 0.8 mi Calm Calm - N/A   Mist
9:21 AM 53.6 °F 53.6 °F 100% 30.18 in 1.1 mi NE 3.5 mph - N/A   Overcast
9:51 AM 55.4 °F 55.4 °F 100% 30.19 in 1.5 mi ENE 3.5 mph - N/A   Overcast
9:56 AM 55.2 °F 55.2 °F 100% 30.19 in 2.0 mi NE 5.8 mph - N/A   Overcast
10:11 AM 55.4 °F 55.4 °F 100% 30.19 in 7.0 mi NE 5.8 mph - N/A   Overcast
10:41 AM 57.2 °F 57.2 °F 100% 30.19 in 10.0 mi East 4.6 mph - N/A   Overcast
10:56 AM 57.9 °F 57.9 °F 100% 30.19 in 10.0 mi ENE 4.6 mph - N/A   Overcast
11:11 AM 59.0 °F 59.0 °F 100% 30.19 in 10.0 mi ENE 4.6 mph - N/A   Overcast
12:11 PM 59.0 °F 57.2 °F 94% 30.18 in 10.0 mi East 6.9 mph - N/A   Overcast
1:56 PM 61.2 °F 57.2 °F 87% 30.17 in 10.0 mi ESE 3.5 mph - N/A   Overcast
2:27 PM 60.8 °F 57.2 °F 88% 30.15 in 10.0 mi ESE 3.5 mph - N/A   Overcast
2:56 PM 62.1 °F 57.6 °F 85% 30.14 in 10.0 mi East 8.1 mph - N/A   Overcast
3:56 PM 62.8 °F 57.6 °F 83% 30.13 in 10.0 mi East 5.8 mph - N/A   Overcast
4:56 PM 63.5 °F 57.2 °F 80% 30.12 in 10.0 mi ESE 5.8 mph - N/A   Overcast
5:45 PM 64.4 °F 57.2 °F 77% 30.10 in 10.0 mi East 10.4 mph - N/A   Overcast
5:56 PM 63.7 °F 57.4 °F 80% 30.10 in 10.0 mi East 9.2 mph - N/A   Overcast
6:56 PM 62.1 °F 56.8 °F 83% 30.11 in 10.0 mi East 9.2 mph - N/A   Overcast
7:26 PM 60.8 °F 57.2 °F 88% 30.11 in 10.0 mi NE 3.5 mph - N/A   Partly Cloudy
7:56 PM 59.2 °F 57.2 °F 93% 30.12 in 10.0 mi NNE 3.5 mph - N/A   Clear
8:56 PM 57.2 °F 57.2 °F 100% 30.12 in 10.0 mi NE 3.5 mph - N/A   Clear
9:56 PM 55.6 °F 55.6 °F 100% 30.13 in 10.0 mi ENE 5.8 mph - N/A   Clear
10:56 PM 56.1 °F 56.1 °F 100% 30.14 in 10.0 mi Calm Calm - N/A   Clear
11:56 PM 55.2 °F 55.2 °F 100% 30.13 in 10.0 mi East 4.6 mph - N/A   Clear